FENGYUN 1C DEB, 38494

Orbit data source: Space-Track

FENGYUN 1C DEB, 38494 is space debris in SSO originally from a launch on Mon, 10 May 1999 UTC launched from the Taiyaun Space Center, China (TSC). Fengyun 1C debris stems from the Chinese weather satellite Fengyun-1C, which was intentionally destroyed by a Chinese anti-satellite missile in 2007. This event dramatically increased the amount of space debris, with thousands of trackable fragments posing hazards to satellites and human spaceflight. The Fengyun 1C debris cloud has become a focal point in discussions about space sustainability and the need for international regulations to prevent the creation of new debris.

Loading next visibility...
Identifier
38494, 1999-025ESD
Orbit
SSO
Country
Flag of CNCN / PRC
Related business
Manufacturer
Unknown
Mission
Spacecraft
Bus & Motor
Unknown
Mass
Unknown
Launch date (UTC)
1999-05-10 (27 years ago)
Launch vehicle
Unknown
Launch site
Taiyaun Space Center, China (TSC)
Object type
Payload
Rocket body
Debris
Shape & HBR
Unknown shape, 0.1 m
Radar Cross Section
Small (<0.1 m²)

Expand to show TLE details & history
Last TLE update: 3 weeks ago

TLE from 3 weeks ago
0 FENGYUN 1C DEB
1 38494U 99025ESD 26142.12214547  .00002773  00000-0  97604-3 0  9992
2 38494  98.4479  85.8365 0374014 276.2047  79.6646 14.03036022 94016
Epoch: 2026-05-22T02:55Z
TLE epoch observation values (Epoch: 2026-05-22T02:55:53.368Z)
Latitude
-0.00002°
Longitude
162.10661°
Altitude
847.394 km
Speed
7.449 km/s
True Right ascension
05h 43m 20s
True Declination
0° 00' 00"
Sunlit
Object was in daylight at epoch
Visualization orbit readout
Latitude
Unknown
Longitude
Unknown
Altitude
Unknown
Speed
Unknown
Apparent Right ascension
Unknown
Apparent Declination
Unknown
Sunlit
N/A
Visualization observer readout
Local Sidereal Time
01:37:27
Azimuth
Unknown
Elevation
Unknown
Doppler factor
Unknown
Orbital elements
Apogee altitude
1,151.946 km
Perigee altitude
608.982 km
Semi-major axis
7,258.601 km
Eccentricity
0.0374
Inclination
98.4479°
RAAN
85.8365°
Arg. of periapsis
276.2047°
True anomaly
83.9127°
Mean anomaly
79.6646°
Eccentric anomaly
81.78556°
Mean motion
3.50965 °/min
Orbital period
102.57 mins
BSTAR
0.00097604
Loading maneuver chart data...
Computing Atmospheric mass density...
Loading historical data...
Loading historical data...
Loading historical data...
Loading historical data...
Loading historical data...
Loading historical data...
Loading historical data...

Documentation

Showing up to 5 results
|